Imperial, CA

8:19 PM PDT on July 25, 2017 (GMT -0700)
Imperial County

Weather History for KIPL - December, 2013

Change the Weather History Date:

Sunday, December 8, 2013

  Actual Average Record
Temperature  
Mean Temperature 50 °F -  
Max Temperature 60 °F 70 °F 85 °F (1975)
Min Temperature 39 °F 44 °F 29 °F (1978)
Degree Days  
Heating Degree Days 16    
Moisture  
Dew Point 28 °F    
Average Humidity 42    
Maximum Humidity 59    
Minimum Humidity 26    
Precipitation  
Precipitation 0.00 in - - ()
Sea Level Pressure  
Sea Level Pressure 30.12 in    
Wind  
Wind Speed 7 mph (North)    
Max Wind Speed 13 mph    
Max Gust Speed 24 mph    
Visibility 10 miles    
Events      
Averages and records for this station are not official NWS values.
T = Trace of Precipitation, MM = Missing Value Source: NWS Daily Summary

Daily Weather History Graph

Daily Weather History Graph

Search for Another Location

Airport or City:

Trip Planner

Search our weather history database for the weather conditions in past years. The results will help you decide how hot, cold, wet, or windy it might be!

Date:

Astronomy

Dec. 08, 2013 Rise Set
Actual Time 6:32 AM PST 4:36 PM PST
Civil Twilight 6:05 AM PST 5:03 PM PST
Nautical Twilight 5:34 AM PST 5:33 PM PST
Astronomical Twilight 5:04 AM PST 6:03 PM PST
Moon 11:10 AM PST (12/8) 11:13 PM PST (12/8)
Length of Visible Light 10h 57m
Length of Day
10h 03m
Waxing Crescent, 41% of the Moon is Illuminated
Dec 8
Waxing Crescent
Dec 9
First Quarter
Dec 17
Full
Dec 25
Last Quarter
Jan 1
New

Hourly Weather History & Observations

Time (PST) Temp. Windchill Dew Point Humidity Pressure Visibility Wind Dir Wind Speed Gust Speed Precip Events Conditions
12:53 AM 52.0 °F - 34.0 °F 50% 30.04 in 10.0 mi West 12.7 mph 24.2 mph N/A   Clear
1:53 AM 51.1 °F - 32.0 °F 48% 30.05 in 10.0 mi NNW 6.9 mph - N/A   Clear
2:53 AM 50.0 °F - 32.0 °F 50% 30.06 in 10.0 mi NNW 8.1 mph - N/A   Clear
3:53 AM 46.9 °F - 33.1 °F 59% 30.07 in 10.0 mi WNW 8.1 mph - N/A   Clear
4:53 AM 48.9 °F - 33.1 °F 54% 30.09 in 10.0 mi WNW 11.5 mph - N/A   Clear
5:53 AM 46.9 °F - 33.1 °F 59% 30.10 in 10.0 mi NNW 6.9 mph - N/A   Scattered Clouds
6:53 AM 46.0 °F 44.8 °F 30.9 °F 56% 30.13 in 10.0 mi ENE 3.5 mph - N/A   Clear
7:53 AM 50.0 °F - 33.1 °F 52% 30.15 in 10.0 mi East 3.5 mph - N/A   Mostly Cloudy
8:53 AM 53.1 °F - 27.0 °F 37% 30.17 in 10.0 mi NE 6.9 mph - N/A   Clear
9:53 AM 55.9 °F - 23.0 °F 28% 30.17 in 10.0 mi NNE 3.5 mph - N/A   Clear
10:53 AM 57.0 °F - 21.9 °F 26% 30.17 in 10.0 mi Variable 4.6 mph - N/A   Clear
11:53 AM 59.0 °F - 27.0 °F 29% 30.13 in 10.0 mi North 6.9 mph - N/A   Mostly Cloudy
12:53 PM 57.9 °F - 28.9 °F 33% 30.09 in 10.0 mi NW 4.6 mph - N/A   Clear
1:53 PM 60.1 °F - 28.9 °F 31% 30.06 in 10.0 mi North 5.8 mph - N/A   Clear
2:53 PM 59.0 °F - 30.0 °F 33% 30.06 in 10.0 mi North 5.8 mph - N/A   Clear
3:53 PM 59.0 °F - 30.9 °F 35% 30.08 in 10.0 mi North 8.1 mph - N/A   Clear
4:53 PM 55.9 °F - 33.1 °F 42% 30.09 in 10.0 mi North 6.9 mph - N/A   Clear
5:53 PM 54.0 °F - 32.0 °F 43% 30.10 in 10.0 mi Calm Calm - N/A   Mostly Cloudy
6:53 PM 51.1 °F - 25.0 °F 36% 30.12 in 10.0 mi NE 3.5 mph - N/A   Clear
7:53 PM 50.0 °F - 19.0 °F 29% 30.14 in 10.0 mi NNE 8.1 mph - N/A   Clear
8:53 PM 48.9 °F - 15.1 °F 26% 30.15 in 10.0 mi NNE 4.6 mph - N/A   Clear
9:53 PM 39.9 °F 37.8 °F 24.1 °F 53% 30.17 in 10.0 mi West 3.5 mph - N/A   Clear
10:53 PM 41.0 °F 38.0 °F 25.0 °F 53% 30.20 in 10.0 mi SW 4.6 mph - N/A   Scattered Clouds
11:53 PM 39.9 °F - 25.0 °F 55% 30.20 in 10.0 mi Calm Calm - N/A   Clear